Location: Unspecified
(0.0000°N, 0.0000°E)
Time: 10:30:53
(UTC+00:00)

Vanguard 1 - All Passes

Search period start: 30 June 2016 00:00
Search period end: 10 July 2016 00:00
Orbit: 649 x 3835 km, 34.3° (Epoch: 27 June)

Date Brightness Start Highest point End Pass type
(mag) Time Alt. Az. Time Alt. Az. Time Alt. Az.
30 Jun - 05:01:36 10° SSW 05:06:02 38° SE 05:12:22 10° ENE visible
30 Jun - 07:21:16 10° W 07:27:03 35° NNW 07:36:40 10° NE daylight
30 Jun - 09:46:41 10° NW 09:52:57 16° N 10:01:13 10° NNE daylight
30 Jun - 12:13:46 10° NNW 12:24:40 17° NNE 12:37:45 10° NE daylight
30 Jun - 14:37:19 10° NNW 14:57:14 37° NNE 15:16:05 10° E daylight
30 Jun - 17:02:13 10° NW 17:26:11 79° NE 17:42:36 10° ESE daylight
30 Jun - 19:32:29 10° WNW 19:51:14 42° SW 20:02:45 10° SSE visible
01 Jul - 05:22:11 10° SW 05:26:55 70° SE 05:34:13 10° ENE visible
01 Jul - 07:43:17 10° WNW 07:48:53 25° NNW 07:57:29 10° NNE daylight
01 Jul - 10:10:21 10° NNW 10:15:59 13° N 10:22:59 10° NNE daylight
01 Jul - 12:35:29 10° NNW 12:48:17 20° NNE 13:03:24 10° ENE daylight
01 Jul - 14:58:27 10° NW 15:19:47 45° NNE 15:39:06 10° E daylight
01 Jul - 17:23:58 10° NW 17:47:53 85° SW 18:03:51 10° SE daylight
01 Jul - 19:56:17 10° W 20:12:34 31° SW 20:23:05 10° SSE visible
02 Jul - 03:27:07 10° SSE 03:28:02 10° SE 03:28:58 10° SE visible
02 Jul - 05:43:08 10° WSW 05:47:59 68° NW 05:55:38 10° NE daylight
02 Jul - 08:05:53 10° WNW 08:10:58 18° NNW 08:18:05 10° NNE daylight
02 Jul - 10:33:46 10° NNW 10:39:17 13° N 10:45:54 10° NNE daylight
02 Jul - 12:56:46 10° NNW 13:11:36 24° NNE 13:28:45 10° ENE daylight
02 Jul - 15:19:36 10° NW 15:42:04 55° NE 16:01:34 10° ESE daylight
02 Jul - 17:46:01 10° WNW 18:09:25 70° SW 18:24:51 10° SE daylight
02 Jul - 20:20:57 10° W 20:34:05 23° SW 20:43:10 10° S visible
03 Jul - 03:45:45 10° SSW 03:49:06 20° SE 03:52:53 10° E visible
03 Jul - 06:04:28 10° W 06:09:16 40° NNW 06:16:41 10° NE daylight
03 Jul - 08:29:15 10° NW 08:33:19 13° N 08:38:25 10° NNE daylight
03 Jul - 10:56:15 10° NNW 11:02:44 13° N 11:10:32 10° NE daylight
03 Jul - 13:17:50 10° NNW 13:34:34 30° NNE 13:53:26 10° E daylight
03 Jul - 15:40:50 10° NW 16:04:07 68° NE 16:23:35 10° ESE daylight
03 Jul - 18:08:31 10° WNW 18:30:53 56° SW 18:45:40 10° SE visible
03 Jul - 20:46:42 10° WSW 20:55:54 16° SW 21:02:52 10° S visible
04 Jul - 04:05:56 10° SSW 04:10:03 39° SE 04:15:06 10° ENE visible
04 Jul - 06:26:16 10° W 06:30:48 26° NNW 06:37:24 10° NNE daylight
04 Jul - 08:54:01 10° NNW 08:55:55 11° N 08:58:00 10° N daylight
04 Jul - 11:17:48 10° NNW 11:26:10 15° NNE 11:36:28 10° NE daylight
04 Jul - 13:38:46 10° NNW 13:57:12 37° NNE 14:17:22 10° E daylight
04 Jul - 16:02:14 10° NW 16:26:00 81° NE 16:45:13 10° ESE daylight
04 Jul - 18:31:33 10° WNW 18:52:22 44° SW 19:06:19 10° SSE visible
04 Jul - 21:14:23 10° SW 21:18:03 11° SSW 21:21:16 10° SSW visible
05 Jul - 04:26:36 10° SW 04:31:00 77° SE 04:36:43 10° ENE visible
05 Jul - 06:48:41 10° WNW 06:52:34 17° NNW 06:57:43 10° NNE daylight
05 Jul - 11:38:50 10° NNW 11:49:26 18° NNE 12:02:42 10° ENE daylight
05 Jul - 13:59:42 10° NW 14:19:31 46° NE 14:40:36 10° ESE daylight
05 Jul - 16:23:52 10° NW 16:47:45 84° SW 17:06:33 10° SE daylight
05 Jul - 18:55:16 10° W 19:13:59 34° SW 19:26:48 10° SSE visible
06 Jul - 02:30:04 10° S 02:31:54 12° SSE 02:33:40 10° SE visible
06 Jul - 04:47:42 10° WSW 04:52:03 55° NW 04:57:52 10° NE visible
06 Jul - 07:12:16 10° NW 07:14:33 12° NNW 07:17:12 10° N daylight
06 Jul - 11:59:37 10° NNW 12:12:24 23° NNE 12:28:32 10° ENE daylight
06 Jul - 14:20:42 10° NW 14:41:37 57° NE 15:03:13 10° ESE daylight
06 Jul - 16:45:49 10° WNW 17:09:25 70° SW 17:27:40 10° SE daylight
06 Jul - 19:19:50 10° W 19:35:49 26° SW 19:47:09 10° SSE visible
07 Jul - 02:49:28 10° SSW 02:53:09 22° SE 02:56:42 10° E visible
07 Jul - 05:09:14 10° W 05:13:18 30° NNW 05:18:38 10° NNE visible
07 Jul - 12:20:20 10° NNW 12:35:01 29° NNE 12:53:34 10° E daylight
07 Jul - 14:41:48 10° NW 15:03:33 69° NE 15:25:21 10° ESE daylight
07 Jul - 17:08:11 10° WNW 17:31:06 56° SW 17:48:35 10° SE daylight
07 Jul - 19:45:20 10° WSW 19:57:57 19° SSW 20:07:20 10° S visible
08 Jul - 03:09:51 10° SW 03:14:14 43° SE 03:18:37 10° ENE visible
08 Jul - 05:31:25 10° WNW 05:34:44 18° NNW 05:38:53 10° NNE visible
08 Jul - 10:23:01 10° N 10:28:10 12° NNE 10:34:13 10° NE daylight
08 Jul - 12:41:02 10° NNW 12:57:19 37° NE 13:17:46 10° E daylight
08 Jul - 15:03:04 10° NW 15:25:22 83° NE 15:47:07 10° SE daylight
08 Jul - 17:31:05 10° WNW 17:52:51 45° SW 18:09:21 10° SSE daylight
08 Jul - 20:11:54 10° SW 20:20:24 14° SSW 20:27:13 10° S visible
09 Jul - 03:30:42 10° SW 03:35:14 89° SSE 03:39:59 10° NE visible
09 Jul - 05:55:00 10° NW 05:56:25 11° NNW 05:57:57 10° N daylight
09 Jul - 10:42:58 10° N 10:51:04 16° NNE 11:01:21 10° ENE daylight
09 Jul - 13:01:46 10° NNW 13:19:21 46° NE 13:41:13 10° ESE daylight
09 Jul - 15:24:35 10° NW 15:47:09 83° SW 16:08:34 10° SE daylight
09 Jul - 17:54:38 10° W 18:14:46 36° SW 18:30:01 10° SSE visible
09 Jul - 20:40:01 10° SW 20:43:11 11° SSW 20:46:04 10° S visible
